Volver al catálogo

JILIN-1 GAOFEN 07C 03 XING

ActivoCienciaSSO
NORAD 68698·PAYLOAD·🇨🇳 China
Este nombre de satélite aún no ha sido confirmado por fuentes oficiales.

Lanzado Apr 14, 2026 desde Jiuquan Satellite Launch Center

Loading…

Próximos Pases (próximas 24 horas)

TLE

ActualizadoSource: Space-Track

Época: Sep 14, 2026, 14:58 UTC

1 68698U 26080H   26257.62417694  .00004596  00000-0  29431-3 0  9990
2 68698  97.6580 333.1342 0018581 123.9823 236.3174 15.08923405 23114

Sigue JILIN-1 GAOFEN 07C 03 XING en tiempo real con AllMySat

Download on the App Store